Theta_e
325 322 321 321 319 319 316 318 318 323 326 330 331 330 331 328 327 327 324 324 325 324
323 321 318 317 312 311 312 311 312 318 318 318 323 322 324 325 326 325 320 318 316 315
319 319 316 314 310 308 307 308 309 312 315 315 317 319 319 315 312 310 308 310 308 309
317 314 312 312 310 309 307 307 307 308 310 311 311 313 313 310 306 304 302 302 302 301
311 308 306 306 309 307 306 305 306 307 308 310 310 309 307 306 306 304 303 304 300 299
311 306 304 307 308 309 307 303 304 305 304 305 307 305 304 303 302 301 303 306 305 302
306 304 303 306 309 308 308 308 307 304 303 303 303 302 301 300 299 299 299 300 302 301
304 304 302 305 306 307 308 306 303 302 302 301 299 299 297 297 296 296 296 297 299 302
305 305 305 305 307 307 305 303 302 301 301 300 298 298 298 299 300 302 304 302 300 300
306 304 302 306 306 304 301 301 300 301 301 300 300 297 297 299 302 302 301 302 303 301
303 301 300 306 303 303 303 301 300 302 301 300 298 297 297 299 302 301 301 302 301 302
302 302 305 303 302 303 302 301 302 302 301 300 301 297 297 299 301 301 302 303 302 303
304 303 302 302 303 302 303 303 303 303 303 301 302 296 296 298 302 302 301 303 303 299
304 304 304 304 302 301 301 301 301 301 303 302 302 302 296 296 303 302 303 303 302 303
Wind_Speed
15 12 13 16 14 13 14 15 17 14 15 17 13 10 9 6 5 6 5 6 4 3
17 18 15 14 12 10 13 13 14 14 11 11 12 10 12 8 8 5 7 8 8 6
17 17 16 14 15 14 12 13 13 13 12 11 11 11 10 8 11 11 10 9 11 10
15 15 15 14 14 15 12 13 13 13 13 13 13 13 11 11 9 10 12 12 13 13
11 11 12 13 14 15 15 15 14 13 14 13 15 15 14 12 12 11 11 12 11 9
10 11 12 13 14 14 12 13 13 14 14 14 12 12 12 12 12 13 13 12 12 11
10 10 10 13 14 15 15 15 16 13 13 15 13 12 11 11 11 11 11 11 11 9
9 8 10 11 14 14 15 14 14 12 14 15 14 10 10 10 9 8 8 8 9 10
8 9 10 14 12 14 15 15 14 12 12 13 10 15 12 7 4 4 8 9 8 9
8 11 12 11 14 14 13 12 12 12 12 12 14 16 15 17 10 10 10 10 8 9
11 12 10 13 14 11 10 10 10 13 14 12 11 17 16 11 10 9 11 10 9 9
9 9 12 13 13 12 11 11 11 11 13 12 15 16 14 10 7 9 10 10 11 10
9 11 12 11 13 11 11 11 10 11 11 14 13 15 17 17 7 7 7 7 7 13
9 11 11 11 10 10 9 10 10 11 11 10 12 13 15 20 10 9 7 8 8 8
Wind_Direction
347 343 332 353 337 336 338 334 332 316 307 318 314 324 314 307 306 315 323 324 298 276
354 353 356 356 351 341 342 336 330 337 356 2 359 360 356 337 318 358 13 16 28 28
355 359 2 3 6 359 353 347 345 353 6 15 12 4 23 24 29 41 35 28 36 24
1 1 0 4 6 6 345 359 357 1 10 30 28 23 32 47 47 58 66 48 35 46
8 4 5 355 3 16 3 6 4 8 14 24 39 42 44 53 60 67 68 66 73 44
16 13 8 3 359 8 13 15 15 21 23 15 31 44 43 46 48 41 44 47 55 54
26 12 0 348 3 8 8 14 30 31 30 32 34 38 46 48 47 45 42 40 43 50
27 14 8 356 8 12 19 22 39 24 42 40 38 34 36 40 44 50 52 44 45 35
27 21 356 13 10 24 25 26 26 32 35 42 43 22 31 37 40 54 46 61 61 74
30 22 16 360 25 24 23 21 23 27 26 34 32 13 358 347 35 39 46 46 51 70
33 26 12 21 25 20 24 23 15 28 25 25 28 11 2 1 44 58 53 53 50 58
32 18 26 26 19 20 24 24 21 27 26 17 37 12 360 355 55 59 58 71 37 37
37 29 32 26 24 17 13 17 12 21 33 27 38 21 360 356 76 68 86 73 86 53
47 46 34 31 21 12 2 7 7 16 22 27 34 48 14 5 39 22 37 34 24 23